sat.trackr.live / text

‹ back to catalog

RANGE-A

NORAD 43773 · 2018-099R

PAYLOAD ACTIVE UNKNOWN

§ Identity

Operator
Country
US
Launch date
2018-12-03
Launch site
AFWTR
Launch vehicle
Mass (kg)
RCS (m²)

External: N2YO · Heavens-Above · Gunter

§ Orbital elements

Epoch: 2026-09-15T20:57:05.242176Z

Period
95.11 min
Inclination
97.3884°
Eccentricity
0.0011083
Mean motion
15.14033534 rev/d
Perigee alt
516.3 km
Apogee alt
531.6 km
Semi-major
6,902.1 km
B*
2.0283e-4
RAAN
298.8007°
Arg perigee
41.0771°
Mean anomaly
319.1294°
Rev number
42,621

§ Raw data

RANGE-A1 43773U 18099R   26258.87297734  .00003626  00000+0  20283-3 0  99952 43773  97.3884 298.8007 0011083  41.0771 319.1294 15.14033534426215

JSON: /api/v1/satellites/43773 · /tle

For live sub-satellite position, see the globe view (requires WebGL).

§ Visibility from observer

Set your observer location to see the next 7 days of passes ≥ 10°. The values pass through the URL so the page stays shareable.

No JS? Fill the form by hand. The geolocation button needs JavaScript.

§ Radio — SatNOGS DB

ModeDescriptionDownlinkUplink
FSK FSK 437.475 MHz
GFSK GFSK Commissioning Phase 437.475 MHz
GFSK GFSK Commissioning Phase (crosslink) 437.150 MHz

3 transmitters · refreshed weekly from db.satnogs.org